Alexander City, AL

3:35 PM CST on December 09, 2019 (GMT -0600)
Russell

Weather History for KALX - October, 2019

Change the Weather History Date:

Tuesday, October 22, 2019

  Actual Average (WUND) Record (WUND)
Temperature  
Mean Temperature 59 °F -  
Max Temperature 71 °F - - (-1)
Min Temperature 45 °F - - (-1)
Degree Days  
Heating Degree Days 6    
Growing Degree Days 9 (Base 50)    
Moisture  
Dew Point 48 °F    
Average Humidity 65    
Maximum Humidity 96    
Minimum Humidity 21    
Precipitation  
Precipitation 0.14 in - - ()
Sea Level Pressure  
Sea Level Pressure 30.01 in    
Wind  
Wind Speed 5 mph (WNW)    
Max Wind Speed 15 mph    
Max Gust Speed 26 mph    
Visibility 10 miles    
Events Rain    
Averages and records for this station are not official NWS values.
T = Trace of Precipitation, MM = Missing Value Source: NWS Daily Summary

Daily Weather History Graph

Daily Weather History Graph

Search for Another Location

Airport or City:

Astronomy

Oct. 22, 2019 Rise Set
Actual Time 6:53 AM CDT 6:02 PM CDT
Civil Twilight 6:28 AM CDT 6:27 PM CDT
Nautical Twilight 5:59 AM CDT 6:56 PM CDT
Astronomical Twilight 5:30 AM CDT 7:25 PM CDT
Moon 12:28 AM CDT (10/22) 2:47 PM CDT (10/22)
Length of Visible Light 11h 59m
Length of Day
11h 09m
Last Quarter, 37% of the Moon is Illuminated
Oct 22
Last Quarter
Oct 27
New
Nov 4
First Quarter
Nov 12
Full
Nov 19
Last Quarter

Hourly Weather History & Observations

Time (CDT) Temp. Dew Point Humidity Pressure Visibility Wind Dir Wind Speed Gust Speed Precip Events Conditions
12:15 AM 69.4 °F 67.1 °F 92% 29.91 in 10.0 mi South 3.5 mph - N/A   Mostly Cloudy
12:35 AM 69.8 °F 67.5 °F 92% 29.90 in 10.0 mi Calm Calm - N/A   Mostly Cloudy
12:55 AM 69.8 °F 68.0 °F 94% 29.91 in 10.0 mi Calm Calm - N/A   Overcast
1:15 AM 69.8 °F 68.0 °F 94% 29.88 in 10.0 mi Calm Calm - N/A   Overcast
1:35 AM 69.4 °F 68.0 °F 95% 29.88 in 10.0 mi SSE 3.5 mph - N/A   Overcast
1:55 AM 69.8 °F 68.4 °F 95% 29.89 in 10.0 mi SSW 4.6 mph - N/A   Overcast
2:15 AM 69.8 °F 68.5 °F 96% 29.89 in 10.0 mi SSW 5.8 mph - N/A   Overcast
2:35 AM 70.0 °F 68.5 °F 95% 29.88 in 10.0 mi SSW 6.9 mph - N/A   Mostly Cloudy
2:55 AM 70.2 °F 68.4 °F 94% 29.88 in 10.0 mi SSW 10.4 mph - N/A   Mostly Cloudy
3:15 AM 70.7 °F 68.0 °F 91% 29.88 in 10.0 mi SSW 9.2 mph - N/A   Overcast
3:55 AM 60.6 °F 57.9 °F 91% 29.92 in 4.0 mi NW 15.0 mph 26.5 mph 0.13 in Rain Heavy Rain
4:15 AM 59.5 °F 55.6 °F 87% 29.93 in 10.0 mi Calm Calm - 0.01 in Rain Light Rain
4:35 AM 60.6 °F 57.2 °F 88% 29.93 in 10.0 mi NW 3.5 mph - 0.01 in Rain Light Rain
4:55 AM 60.4 °F 58.3 °F 93% 29.94 in 10.0 mi Calm Calm - 0.01 in   Mostly Cloudy
5:15 AM 61.0 °F 59.0 °F 93% 29.95 in 10.0 mi NW 4.6 mph - N/A Rain Light Rain
5:35 AM 61.7 °F 59.2 °F 91% 29.96 in 10.0 mi NW 5.8 mph - N/A Rain Light Rain
5:55 AM 61.7 °F 58.1 °F 88% 29.96 in 10.0 mi NNW 6.9 mph - N/A   Mostly Cloudy
6:15 AM 61.3 °F 58.3 °F 90% 29.97 in 10.0 mi NW 6.9 mph - N/A   Overcast
6:35 AM 61.0 °F 57.2 °F 87% 29.98 in 10.0 mi NW 5.8 mph - N/A   Overcast
6:55 AM 60.8 °F 57.2 °F 88% 29.99 in 10.0 mi NW 5.8 mph - N/A   Overcast
7:15 AM 60.8 °F 56.3 °F 85% 30.00 in 10.0 mi NW 5.8 mph - N/A   Overcast
7:35 AM 60.4 °F 56.8 °F 88% 30.00 in 10.0 mi NW 4.6 mph - N/A   Overcast
7:55 AM 60.4 °F 56.1 °F 86% 30.01 in 10.0 mi WNW 5.8 mph - N/A   Overcast
8:35 AM 60.6 °F 55.2 °F 82% 30.04 in 10.0 mi NW 5.8 mph - N/A   Scattered Clouds
8:55 AM 61.7 °F 53.8 °F 75% 30.04 in 10.0 mi WNW 5.8 mph - N/A   Clear
9:15 AM 63.1 °F 53.1 °F 70% 30.05 in 10.0 mi NW 4.6 mph - N/A   Clear
9:35 AM 64.2 °F 50.9 °F 62% 30.04 in 10.0 mi NW 8.1 mph - N/A   Clear
9:55 AM 65.1 °F 48.0 °F 54% 30.05 in 10.0 mi WNW 9.2 mph - N/A   Clear
10:15 AM 65.1 °F 46.0 °F 50% 30.05 in 10.0 mi WNW 10.4 mph - N/A   Clear
10:35 AM 65.8 °F 45.5 °F 48% 30.06 in 10.0 mi NNW 8.1 mph - N/A   Clear
10:55 AM 66.6 °F 43.2 °F 43% 30.06 in 10.0 mi NW 9.2 mph - N/A   Clear
11:15 AM 67.5 °F 41.0 °F 38% 30.05 in 10.0 mi NNW 6.9 mph - N/A   Clear
11:35 AM 67.8 °F 41.9 °F 39% 30.04 in 10.0 mi West 5.8 mph - N/A   Clear
11:55 AM 68.5 °F 38.8 °F 34% 30.04 in 10.0 mi NW 8.1 mph - N/A   Clear
12:15 PM 68.7 °F 40.3 °F 35% 30.04 in 10.0 mi WNW 6.9 mph 17.3 mph N/A   Clear
12:35 PM 69.8 °F 38.1 °F 31% 30.03 in 10.0 mi WNW 8.1 mph 18.4 mph N/A   Clear
12:55 PM 70.3 °F 38.1 °F 31% 30.02 in 10.0 mi West 10.4 mph - N/A   Clear
1:15 PM 70.7 °F 37.0 °F 29% 30.01 in 10.0 mi WNW 10.4 mph 19.6 mph N/A   Clear
1:35 PM 71.4 °F 36.0 °F 27% 30.01 in 10.0 mi NW 10.4 mph 18.4 mph N/A   Clear
1:55 PM 71.4 °F 36.1 °F 28% 30.01 in 10.0 mi WNW 9.2 mph 17.3 mph N/A   Clear
2:15 PM 71.2 °F 34.9 °F 26% 30.01 in 10.0 mi WNW 13.8 mph 19.6 mph N/A   Clear
2:35 PM 71.8 °F 36.5 °F 28% 30.01 in 10.0 mi West 11.5 mph 20.7 mph N/A   Clear
2:55 PM 71.8 °F 32.9 °F 24% 30.01 in 10.0 mi WNW 11.5 mph 18.4 mph N/A   Clear
3:15 PM 71.6 °F 29.7 °F 21% 30.01 in 10.0 mi NW 11.5 mph 17.3 mph N/A   Clear
3:35 PM 71.6 °F 31.5 °F 23% 30.02 in 10.0 mi West 11.5 mph 17.3 mph N/A   Clear
3:55 PM 70.7 °F 29.1 °F 21% 30.02 in 10.0 mi West 10.4 mph 17.3 mph N/A   Clear
4:15 PM 70.7 °F 30.4 °F 22% 30.01 in 10.0 mi WNW 9.2 mph - N/A   Clear
4:35 PM 70.2 °F 31.5 °F 24% 30.01 in 10.0 mi WNW 6.9 mph - N/A   Clear
4:55 PM 69.3 °F 32.2 °F 25% 30.02 in 10.0 mi WNW 5.8 mph - N/A   Clear
5:15 PM 68.5 °F 33.1 °F 27% 30.02 in 10.0 mi West 6.9 mph - N/A   Clear
5:35 PM 67.5 °F 32.4 °F 27% 30.03 in 10.0 mi WNW 4.6 mph - N/A   Clear
6:15 PM 61.9 °F 38.7 °F 42% 30.04 in 10.0 mi Calm Calm - N/A   Clear
6:35 PM 58.1 °F 41.2 °F 53% 30.05 in 10.0 mi West 3.5 mph - N/A   Clear
6:55 PM 57.4 °F 43.2 °F 59% 30.06 in 10.0 mi Calm Calm - N/A   Clear
7:35 PM 53.6 °F 42.6 °F 66% 30.07 in 10.0 mi Calm Calm - N/A   Clear
7:55 PM 52.9 °F 43.9 °F 71% 30.07 in 10.0 mi Calm Calm - N/A   Clear
8:15 PM 51.1 °F 44.2 °F 77% 30.08 in 10.0 mi Calm Calm - N/A   Clear
8:35 PM 51.1 °F 44.4 °F 78% 30.09 in 10.0 mi Calm Calm - N/A   Clear
8:55 PM 49.8 °F 44.1 °F 81% 30.09 in 10.0 mi Calm Calm - N/A   Clear
9:15 PM 49.6 °F 44.6 °F 83% 30.10 in 10.0 mi Calm Calm - N/A   Clear
9:35 PM 50.2 °F 43.2 °F 77% 30.11 in 10.0 mi Calm Calm - N/A   Clear
9:55 PM 48.9 °F 43.2 °F 80% 30.12 in 10.0 mi Calm Calm - N/A   Clear
10:15 PM 47.7 °F 43.2 °F 84% 30.13 in 10.0 mi Calm Calm - N/A   Clear
10:35 PM 47.3 °F 43.0 °F 85% 30.13 in 10.0 mi Calm Calm - N/A   Clear
10:55 PM 48.4 °F 42.8 °F 81% 30.13 in 10.0 mi NW 3.5 mph - N/A   Clear
11:15 PM 47.7 °F 43.3 °F 85% 30.13 in 10.0 mi Calm Calm - N/A   Clear
11:55 PM 45.7 °F 42.8 °F 90% 30.13 in 10.0 mi Calm Calm - N/A   Clear